�������l�o���
Date,Time,MP-1(��Sv/h),MP-2(��Sv/h),MP-3(��Sv/h),MP-4(��Sv/h),MP-5(��Sv/h),MP-6(��Sv/h),MP-7(��Sv/h),MP-8(��Sv/h),����,����(m/s),���J
2019/08/26,00:00,0.766,1.081,0.748,1.338,0.979,0.432,0.749,0.706,���k��,4.0,��
2019/08/26,00:10,0.765,1.083,0.748,1.337,0.979,0.431,0.747,0.706,��,4.5,��
2019/08/26,00:20,0.766,1.080,0.748,1.335,0.980,0.429,0.748,0.705,���k��,4.0,��
2019/08/26,00:30,0.765,1.080,0.747,1.336,0.980,0.431,0.748,0.705,���k��,3.5,��
2019/08/26,00:40,0.764,1.080,0.749,1.336,0.984,0.431,0.747,0.705,��,2.3,��
2019/08/26,00:50,0.764,1.080,0.748,1.337,0.982,0.431,0.748,0.706,��,1.5,��
2019/08/26,01:00,0.765,1.081,0.747,1.335,0.979,0.432,0.748,0.705,�k��,2.0,��
2019/08/26,01:10,0.766,1.081,0.750,1.335,0.978,0.431,0.750,0.707,���k��,3.3,��
2019/08/26,01:20,0.766,1.081,0.748,1.334,0.979,0.430,0.750,0.705,�k��,3.9,��
2019/08/26,01:30,0.765,1.082,0.748,1.338,0.980,0.431,0.749,0.706,�k�k��,5.3,��
2019/08/26,01:40,0.765,1.078,0.748,1.338,0.979,0.431,0.749,0.707,�k��,4.7,��
2019/08/26,01:50,0.764,1.081,0.746,1.333,0.980,0.431,0.749,0.707,�k��,4.1,��
2019/08/26,02:00,0.764,1.082,0.746,1.338,0.981,0.432,0.748,0.705,�k�k��,4.1,��
2019/08/26,02:10,0.764,1.082,0.748,1.338,0.982,0.432,0.749,0.706,�k�k��,4.2,��
2019/08/26,02:20,0.764,1.079,0.746,1.334,0.981,0.432,0.748,0.706,�k�k��,4.0,��
2019/08/26,02:30,0.766,1.079,0.747,1.335,0.978,0.432,0.749,0.706,�k�k��,3.8,��
2019/08/26,02:40,0.765,1.078,0.747,1.337,0.980,0.430,0.749,0.707,�k�k��,3.5,��
2019/08/26,02:50,0.765,1.081,0.747,1.337,0.979,0.430,0.748,0.706,�k�k��,4.8,��
2019/08/26,03:00,0.764,1.080,0.746,1.336,0.979,0.429,0.749,0.706,�k�k��,4.7,��
2019/08/26,03:10,0.763,1.080,0.747,1.337,0.980,0.430,0.748,0.705,�k�k��,5.1,��
2019/08/26,03:20,0.763,1.081,0.746,1.337,0.981,0.430,0.749,0.707,�k�k��,4.9,��
2019/08/26,03:30,0.763,1.082,0.747,1.337,0.982,0.431,0.748,0.704,�k�k��,4.0,��
2019/08/26,03:40,0.762,1.080,0.748,1.338,0.980,0.430,0.749,0.705,�k��,3.7,��
2019/08/26,03:50,0.763,1.079,0.748,1.338,0.980,0.431,0.748,0.706,�k�k��,5.0,��
2019/08/26,04:00,0.764,1.080,0.748,1.335,0.979,0.430,0.748,0.708,�k�k��,5.6,��
2019/08/26,04:10,0.765,1.081,0.747,1.335,0.980,0.430,0.750,0.706,�k�k��,4.6,��
2019/08/26,04:20,0.764,1.078,0.747,1.336,0.982,0.430,0.748,0.706,�k�k��,5.2,��
2019/08/26,04:30,0.765,1.079,0.747,1.338,0.978,0.430,0.749,0.707,�k�k��,5.6,��
2019/08/26,04:40,0.764,1.078,0.747,1.337,0.980,0.431,0.748,0.705,�k��,5.5,��
2019/08/26,04:50,0.764,1.079,0.747,1.339,0.980,0.429,0.748,0.705,�k�k��,5.9,��
2019/08/26,05:00,0.762,1.080,0.745,1.336,0.977,0.431,0.749,0.705,�k�k��,5.1,��
2019/08/26,05:10,0.763,1.078,0.747,1.335,0.977,0.430,0.749,0.705,�k�k��,4.9,��
2019/08/26,05:20,0.764,1.079,0.747,1.337,0.981,0.431,0.749,0.706,�k��,4.8,��
2019/08/26,05:30,0.763,1.078,0.746,1.336,0.980,0.430,0.749,0.707,�k��,4.8,��
2019/08/26,05:40,0.763,1.080,0.746,1.337,0.978,0.430,0.750,0.706,�k��,4.9,��
2019/08/26,05:50,0.761,1.080,0.747,1.337,0.980,0.430,0.747,0.705,�k��,4.5,��
2019/08/26,06:00,0.764,1.078,0.747,1.336,0.980,0.429,0.749,0.704,�k��,3.7,��
2019/08/26,06:10,0.764,1.080,0.747,1.335,0.979,0.430,0.748,0.708,�k��,4.0,��
2019/08/26,06:20,0.764,1.078,0.746,1.336,0.977,0.430,0.749,0.705,�k��,4.9,��
2019/08/26,06:30,0.765,1.081,0.748,1.334,0.979,0.430,0.748,0.705,�k��,4.4,��
2019/08/26,06:40,0.763,1.077,0.749,1.338,0.979,0.431,0.747,0.706,�k��,4.0,��
2019/08/26,06:50,0.766,1.077,0.749,1.337,0.978,0.430,0.748,0.708,�k�k��,3.4,��
2019/08/26,07:00,0.763,1.075,0.747,1.337,0.980,0.429,0.748,0.706,�k�k��,3.8,��
2019/08/26,07:10,0.764,1.076,0.747,1.336,0.980,0.428,0.749,0.706,�k�k��,2.3,��
2019/08/26,07:20,0.765,1.077,0.746,1.340,0.980,0.428,0.749,0.707,�k�k��,3.0,��
2019/08/26,07:30,0.765,1.075,0.747,1.336,0.978,0.428,0.748,0.706,�k�k��,2.3,��
2019/08/26,07:40,0.764,1.076,0.746,1.336,0.980,0.428,0.748,0.707,�k,3.0,��
2019/08/26,07:50,0.763,1.077,0.744,1.337,0.980,0.429,0.749,0.706,�k,3.0,��
2019/08/26,08:00,0.766,1.076,0.747,1.337,0.977,0.428,0.749,0.704,�k,3.3,��
2019/08/26,08:10,0.765,1.075,0.747,1.334,0.979,0.427,0.748,0.704,�k�k��,3.5,��
2019/08/26,08:20,0.762,1.075,0.746,1.338,0.981,0.427,0.748,0.705,�k�k��,3.6,��
2019/08/26,08:30,0.766,1.077,0.745,1.337,0.978,0.426,0.748,0.705,�k�k��,4.7,��
2019/08/26,08:40,0.763,1.073,0.745,1.335,0.979,0.426,0.747,0.703,�k�k��,5.3,��
2019/08/26,08:50,0.766,1.079,0.745,1.335,0.981,0.429,0.748,0.705,�k�k��,5.3,��
2019/08/26,09:00,0.764,1.075,0.742,1.337,0.981,0.427,0.749,0.704,�k�k��,5.4,��
2019/08/26,09:10,0.762,1.074,0.742,1.338,0.983,0.426,0.748,0.704,�k�k��,5.4,��
2019/08/26,09:20,0.764,1.075,0.746,1.337,0.980,0.427,0.747,0.703,�k�k��,5.1,��
2019/08/26,09:30,0.766,1.074,0.744,1.335,0.981,0.427,0.748,0.704,�k��,5.1,��
2019/08/26,09:40,0.765,1.075,0.742,1.336,0.981,0.427,0.747,0.705,�k��,4.5,��
2019/08/26,09:50,0.765,1.074,0.743,1.339,0.981,0.427,0.746,0.705,�k��,5.0,��
2019/08/26,10:00,0.764,1.077,0.744,1.334,0.980,0.427,0.749,0.703,�k��,4.6,��
2019/08/26,10:10,0.765,1.076,0.743,1.338,0.983,0.427,0.749,0.704,�k��,4.7,��
2019/08/26,10:20,0.763,1.078,0.747,1.339,0.981,0.427,0.748,0.704,�k��,4.9,��
2019/08/26,10:30,0.765,1.079,0.747,1.339,0.981,0.428,0.747,0.706,�k��,4.7,��
2019/08/26,10:40,0.764,1.077,0.745,1.336,0.982,0.427,0.744,0.703,�k��,5.1,��
2019/08/26,10:50,0.765,1.076,0.745,1.339,0.982,0.428,0.746,0.705,���k��,5.3,��
2019/08/26,11:00,0.767,1.078,0.744,1.338,0.985,0.428,0.743,0.704,�k��,4.9,��
2019/08/26,11:10,0.765,1.076,0.745,1.338,0.983,0.428,0.742,0.704,�k��,5.0,��
2019/08/26,11:20,0.764,1.077,0.746,1.337,0.984,0.428,0.746,0.705,�k��,5.3,��
2019/08/26,11:30,0.765,1.078,0.744,1.337,0.983,0.426,0.749,0.705,�k��,5.0,��
2019/08/26,11:40,0.765,1.081,0.745,1.336,0.983,0.426,0.748,0.704,���k��,4.2,��
2019/08/26,11:50,0.766,1.083,0.745,1.334,0.982,0.426,0.749,0.706,���k��,4.6,��
2019/08/26,12:00,0.766,1.082,0.747,1.334,0.983,0.428,0.747,0.705,���k��,4.2,��
2019/08/26,12:10,0.767,1.086,0.747,1.336,0.983,0.428,0.749,0.705,���k��,3.2,��
2019/08/26,12:20,0.766,1.085,0.748,1.334,0.986,0.427,0.748,0.704,���k��,3.7,��
2019/08/26,12:30,0.767,1.083,0.749,1.334,0.985,0.425,0.747,0.703,���k��,3.5,��
2019/08/26,12:40,0.766,1.086,0.746,1.336,0.985,0.426,0.747,0.704,���k��,3.8,��
2019/08/26,12:50,0.764,1.086,0.747,1.337,0.985,0.426,0.748,0.705,��,3.8,��
2019/08/26,13:00,0.766,1.084,0.749,1.339,0.985,0.428,0.750,0.705,��,3.5,��
2019/08/26,13:10,0.767,1.081,0.747,1.338,0.986,0.427,0.748,0.705,��,3.3,��
2019/08/26,13:20,0.767,1.081,0.749,1.338,0.987,0.427,0.750,0.704,��,2.6,��
2019/08/26,13:30,0.766,1.081,0.747,1.341,0.986,0.429,0.749,0.704,��,2.8,��
2019/08/26,13:40,0.768,1.081,0.748,1.342,0.987,0.428,0.749,0.706,���k��,3.0,��
2019/08/26,13:50,0.766,1.082,0.749,1.339,0.986,0.429,0.747,0.704,��,3.3,��
2019/08/26,14:00,0.768,1.081,0.749,1.341,0.986,0.429,0.749,0.705,��,2.9,��
2019/08/26,14:10,0.768,1.081,0.745,1.338,0.988,0.429,0.750,0.705,��,2.9,��
2019/08/26,14:20,0.767,1.082,0.746,1.336,0.985,0.428,0.749,0.706,��,3.1,��
2019/08/26,14:30,0.769,1.083,0.748,1.339,0.988,0.428,0.750,0.705,��,2.8,��
2019/08/26,14:40,0.768,1.078,0.746,1.340,0.986,0.430,0.751,0.705,��,2.6,��
2019/08/26,14:50,0.769,1.082,0.747,1.342,0.987,0.428,0.748,0.704,�쓌,3.6,��
2019/08/26,15:00,0.769,1.084,0.748,1.343,0.989,0.427,0.749,0.704,���쓌,2.8,��
2019/08/26,15:10,0.769,1.085,0.748,1.340,0.988,0.428,0.748,0.705,��,3.1,��
2019/08/26,15:20,0.770,1.086,0.750,1.341,0.989,0.427,0.750,0.704,���쓌,2.0,��
2019/08/26,15:30,0.771,1.084,0.748,1.341,0.987,0.427,0.749,0.705,���쓌,2.8,��
2019/08/26,15:40,0.768,1.086,0.748,1.341,0.986,0.428,0.749,0.705,���쓌,3.2,��
2019/08/26,15:50,0.769,1.087,0.749,1.344,0.987,0.427,0.749,0.705,���쓌,2.0,��
2019/08/26,16:00,0.770,1.085,0.748,1.342,0.986,0.428,0.749,0.705,�쓌,3.0,��
2019/08/26,16:10,0.768,1.090,0.748,1.342,0.988,0.427,0.749,0.706,�쓌,3.2,��
2019/08/26,16:20,0.768,1.086,0.749,1.341,0.990,0.427,0.747,0.703,�쓌,2.5,��
2019/08/26,16:30,0.767,1.087,0.749,1.341,0.989,0.426,0.750,0.705,���쓌,3.3,��
2019/08/26,16:40,0.767,1.088,0.747,1.344,0.989,0.429,0.749,0.706,���쓌,2.8,��
2019/08/26,16:50,0.767,1.090,0.748,1.344,0.990,0.428,0.749,0.705,�쓌,3.1,��
2019/08/26,17:00,0.768,1.089,0.750,1.342,0.990,0.429,0.749,0.705,���쓌,2.3,��
2019/08/26,17:10,0.770,1.090,0.751,1.341,0.990,0.428,0.749,0.705,��쓌,2.6,��
2019/08/26,17:20,0.767,1.090,0.752,1.343,0.990,0.428,0.748,0.705,�쓌,2.8,��
2019/08/26,17:30,0.768,1.088,0.751,1.344,0.989,0.430,0.750,0.704,�쓌,3.0,��
2019/08/26,17:40,0.768,1.091,0.750,1.344,0.991,0.430,0.750,0.706,�쓌,2.9,��
2019/08/26,17:50,0.769,1.090,0.751,1.342,0.990,0.431,0.749,0.706,�쓌,1.9,�L
2019/08/26,18:00,0.769,1.090,0.752,1.345,0.988,0.429,0.750,0.707,��쓌,2.5,�L
2019/08/26,18:10,0.767,1.087,0.752,1.343,0.988,0.429,0.749,0.706,��쓌,2.6,�L
2019/08/26,18:20,0.768,1.090,0.750,1.342,0.990,0.429,0.751,0.705,�쓌,2.9,�L
2019/08/26,18:30,0.770,1.089,0.752,1.343,0.989,0.429,0.750,0.706,��쓌,2.3,��
2019/08/26,18:40,0.767,1.087,0.753,1.344,0.990,0.430,0.749,0.706,��,2.5,��
2019/08/26,18:50,0.767,1.088,0.753,1.343,0.991,0.428,0.749,0.706,��쓌,2.5,��
2019/08/26,19:00,0.768,1.087,0.752,1.342,0.989,0.430,0.751,0.707,��쓌,1.5,��
2019/08/26,19:10,0.769,1.090,0.750,1.343,0.989,0.429,0.751,0.707,�쓌,2.3,�L
2019/08/26,19:20,0.768,1.087,0.752,1.343,0.988,0.430,0.749,0.706,�쓌,2.0,�L
2019/08/26,19:30,0.767,1.089,0.752,1.344,0.986,0.430,0.750,0.706,���쓌,2.0,��
2019/08/26,19:40,0.769,1.087,0.752,1.346,0.991,0.430,0.751,0.707,��쓌,2.3,��
2019/08/26,19:50,0.769,1.090,0.752,1.342,0.991,0.431,0.749,0.707,��쓌,1.4,��
2019/08/26,20:00,0.769,1.091,0.750,1.343,0.990,0.430,0.750,0.705,��,1.5,��
2019/08/26,20:10,0.766,1.089,0.752,1.343,0.990,0.430,0.748,0.707,�쓌,2.3,��
2019/08/26,20:20,0.767,1.090,0.753,1.344,0.988,0.430,0.749,0.706,��쓌,2.0,��
2019/08/26,20:30,0.769,1.092,0.753,1.342,0.990,0.429,0.749,0.706,��,1.7,��
2019/08/26,20:40,0.769,1.089,0.752,1.345,0.989,0.429,0.750,0.706,��,1.9,��
2019/08/26,20:50,0.769,1.091,0.753,1.343,0.991,0.429,0.749,0.705,��,2.0,��
2019/08/26,21:00,0.767,1.093,0.753,1.344,0.992,0.429,0.749,0.707,��쐼,0.6,��
2019/08/26,21:10,0.769,1.089,0.752,1.344,0.991,0.429,0.750,0.707,-,CALM,��
2019/08/26,21:20,0.768,1.090,0.751,1.347,0.989,0.430,0.749,0.707,���쐼,0.9,��
2019/08/26,21:30,0.768,1.091,0.753,1.344,0.989,0.431,0.750,0.706,�쐼,1.4,��
2019/08/26,21:40,0.768,1.090,0.751,1.344,0.990,0.429,0.749,0.706,�쐼,1.2,��
2019/08/26,21:50,0.768,1.089,0.752,1.345,0.991,0.432,0.748,0.709,��쐼,1.2,��
2019/08/26,22:00,0.770,1.090,0.754,1.344,0.990,0.430,0.752,0.705,�쐼,1.4,��
2019/08/26,22:10,0.769,1.091,0.752,1.345,0.989,0.430,0.750,0.707,�쐼,2.0,��
2019/08/26,22:20,0.769,1.089,0.754,1.344,0.991,0.430,0.750,0.707,�쐼,1.9,��
2019/08/26,22:30,0.771,1.091,0.752,1.346,0.989,0.430,0.750,0.710,�쐼,1.7,��
2019/08/26,22:40,0.766,1.087,0.753,1.348,0.992,0.430,0.750,0.706,�쐼,1.9,��
2019/08/26,22:50,0.769,1.091,0.752,1.345,0.990,0.430,0.750,0.708,�쐼,1.2,��
2019/08/26,23:00,0.770,1.091,0.752,1.342,0.989,0.429,0.751,0.706,-,CALM,��
2019/08/26,23:10,0.768,1.091,0.752,1.346,0.989,0.431,0.749,0.705,�k�k��,0.9,��
2019/08/26,23:20,0.769,1.086,0.753,1.344,0.990,0.431,0.752,0.707,�k��,0.8,��
2019/08/26,23:30,0.768,1.091,0.755,1.346,0.990,0.430,0.748,0.709,�k��,0.6,��
2019/08/26,23:40,0.768,1.089,0.751,1.346,0.992,0.430,0.750,0.707,�k�k��,0.9,��
2019/08/26,23:50,0.768,1.088,0.754,1.346,0.991,0.430,0.748,0.707,�k�k��,0.9,��
